カタログに戻る

NOAA 16 DEB

運用中SSO
NORAD 41428·DEBRIS·🇺🇸 United States

打ち上げ Sep 21, 2000 から Vandenberg Space Force Base

Loading…

次のパス (今後24時間)

TLE

最新Source: Space-Track

元期: Sep 11, 2026, 19:18 UTC

1 41428U 00055LH  26254.80459404  .00003392  00000-0  11145-2 0  9993
2 41428  98.8364  19.5376 0013472 248.9988 110.9758 14.38925168546783

AllMySatでNOAA 16 DEBをリアルタイム追跡

Download on the App Store